Weather History for Praha / Ruzyne, Czech Republic

Change the Weather History Date:

Saturday, September 21, 2013

  Actual Average Record
Temperature  
Mean Temperature 52 °F -  
Max Temperature 57 °F 59 °F - ()
Min Temperature 48 °F 41 °F - ()
Degree Days  
Heating Degree Days 12    
Growing Degree Days 2 (Base 50)    
Moisture  
Dew Point 48 °F    
Average Humidity 85    
Maximum Humidity 94    
Minimum Humidity 72    
Precipitation  
Precipitation 0.00 in 0.04 in - ()
Sea Level Pressure  
Sea Level Pressure 30.21 in    
Wind  
Wind Speed 9 mph ()    
Max Wind Speed 15 mph    
Max Gust Speed -    
Visibility 6.8 miles    
Events Rain    
T = Trace of Precipitation, MM = Missing Value Source: Averaged Metar Reports

Daily Weather History Graph

Daily Weather History Graph

Search for Another Location

Airport:

Trip Planner

Search our weather history database for the weather conditions in past years. The results will help you decide how hot, cold, wet, or windy it might be!

Date:

Astronomy

Sep. 21, 2013 Rise Set
Actual Time 6:47 AM CEST 7:03 PM CEST
Civil Twilight 6:15 AM CEST 7:35 PM CEST
Nautical Twilight 5:37 AM CEST 8:13 PM CEST
Astronomical Twilight 4:57 AM CEST 8:53 PM CEST
Moon 7:44 PM CEST (9/21) 9:04 AM CEST (9/21)
Length of Visible Light 13h 20m
Length of Day
12h 15m
Waning Gibbous, 95% of the Moon is Illuminated
Sep 21
Waning Gibbous
Sep 27
Last Quarter
Oct 5
New
Oct 12
First Quarter
Oct 19
Full

Hourly Weather History & Observations

Time (CEST) Temp. Dew Point Humidity Pressure Visibility Wind Dir Wind Speed Gust Speed Precip Events Conditions
12:00 AM 50.0 °F 48.2 °F 94% 30.06 in - WSW 9.2 mph - N/A   Clear
12:30 AM 51.8 °F 48.2 °F 88% 30.06 in - SW 8.1 mph - N/A   Clear
1:00 AM 51.8 °F 48.2 °F 88% 30.06 in - WSW 10.4 mph - N/A   Clear
1:30 AM 51.8 °F 48.2 °F 88% 30.06 in 6.2 mi WSW 9.2 mph - N/A   Partly Cloudy
2:00 AM 52 °F 49 °F 86% 30.10 in 16 mi WSW 11.2 mph - -   Mostly Cloudy
2:00 AM 51.8 °F 50.0 °F 94% 30.06 in 6.2 mi WSW 11.5 mph - N/A   Mostly Cloudy
2:30 AM 51.8 °F 50.0 °F 94% 30.09 in 6.2 mi WSW 12.7 mph - N/A   Mostly Cloudy
3:00 AM 51.8 °F 50.0 °F 94% 30.09 in 6.2 mi WSW 11.5 mph - N/A   Mostly Cloudy
3:30 AM 51.8 °F 50.0 °F 94% 30.09 in 6.2 mi WSW 10.4 mph - N/A   Mostly Cloudy
4:00 AM 51.8 °F 50.0 °F 94% 30.12 in 6.2 mi West 10.4 mph - N/A   Mostly Cloudy
4:30 AM 51.8 °F 48.2 °F 88% 30.12 in 6.2 mi West 6.9 mph - N/A   Scattered Clouds
5:00 AM 51.8 °F 48.2 °F 88% 30.12 in 6.2 mi WSW 5.8 mph - N/A   Partly Cloudy
5:30 AM 51.8 °F 48.2 °F 88% 30.12 in 6.2 mi West 9.2 mph - N/A   Mostly Cloudy
6:00 AM 51.8 °F 50.0 °F 94% 30.12 in 6.2 mi West 11.5 mph - N/A Rain Light Rain Showers
6:17 AM 51.8 °F 48.2 °F 88% 30.15 in 6.2 mi West 10.4 mph - N/A   Partly Cloudy
6:30 AM 51.8 °F 48.2 °F 88% 30.15 in - West 10.4 mph - N/A   Clear
7:00 AM 51.8 °F 48.2 °F 88% 30.15 in - West 8.1 mph - N/A   Clear
7:30 AM 51.8 °F 48.2 °F 88% 30.15 in - West 10.4 mph - N/A   Clear
8:00 AM 51.8 °F 48.2 °F 88% 30.18 in 6.2 mi West 9.2 mph - N/A   Partly Cloudy
8:30 AM 51.8 °F 48.2 °F 88% 30.18 in 6.2 mi West 10.4 mph - N/A   Partly Cloudy
9:00 AM 53.6 °F 48.2 °F 82% 30.18 in 6.2 mi West 10.4 mph - N/A   Partly Cloudy
9:30 AM 55.4 °F 48.2 °F 77% 30.18 in 6.2 mi West 11.5 mph - N/A   Partly Cloudy
10:00 AM 55.4 °F 48.2 °F 77% 30.21 in 6.2 mi West 12.7 mph - N/A   Scattered Clouds
10:30 AM 55.4 °F 48.2 °F 77% 30.21 in 6.2 mi WNW 10.4 mph - N/A   Mostly Cloudy
11:00 AM 53.6 °F 48.2 °F 82% 30.21 in 6.2 mi WNW 13.8 mph - N/A   Mostly Cloudy
11:30 AM 55.4 °F 50.0 °F 82% 30.24 in 6.2 mi NW 13.8 mph - N/A   Scattered Clouds
12:00 PM 55.4 °F 50.0 °F 82% 30.24 in 6.2 mi NW 12.7 mph - N/A   Mostly Cloudy
12:30 PM 57.2 °F 48.2 °F 72% 30.24 in 6.2 mi NW 12.7 mph - N/A   Mostly Cloudy
1:00 PM 57.2 °F 48.2 °F 72% 30.24 in 6.2 mi NW 12.7 mph - N/A   Mostly Cloudy
1:30 PM 55.4 °F 50.0 °F 82% 30.27 in 6.2 mi NNW 15.0 mph - N/A Rain Light Rain Showers
1:37 PM 55.4 °F 50.0 °F 82% 30.27 in 6.2 mi NNW 12.7 mph - N/A   Mostly Cloudy
2:00 PM 56 °F 49 °F 72% 30.27 in 25 mi NNW 13.4 mph - - Rain Light Rain Showers
2:00 PM 57.2 °F 50.0 °F 77% 30.27 in 6.2 mi NNW 10.4 mph - N/A   Mostly Cloudy
2:30 PM 55.4 °F 48.2 °F 77% 30.27 in 6.2 mi NNW 11.5 mph - N/A   Mostly Cloudy
3:00 PM 55.4 °F 48.2 °F 77% 30.27 in 6.2 mi NW 12.7 mph - N/A   Mostly Cloudy
3:30 PM 55.4 °F 48.2 °F 77% 30.27 in 6.2 mi NW 9.2 mph - N/A   Partly Cloudy
4:00 PM 57.2 °F 50.0 °F 77% 30.27 in 6.2 mi NW 10.4 mph - N/A   Partly Cloudy
4:30 PM 57.2 °F 48.2 °F 72% 30.27 in 6.2 mi WNW 8.1 mph - N/A   Partly Cloudy
5:00 PM 57.2 °F 48.2 °F 72% 30.27 in 6.2 mi WNW 8.1 mph - N/A   Partly Cloudy
5:30 PM 55.4 °F 48.2 °F 77% 30.30 in 6.2 mi WNW 8.1 mph - N/A   Partly Cloudy
6:00 PM 55.4 °F 48.2 °F 77% 30.30 in 6.2 mi WNW 9.2 mph - N/A   Partly Cloudy
6:30 PM 55.4 °F 48.2 °F 77% 30.30 in 6.2 mi WNW 6.9 mph - N/A   Partly Cloudy
7:00 PM 53.6 °F 48.2 °F 82% 30.30 in 6.2 mi West 6.9 mph - N/A   Partly Cloudy
7:30 PM 51.8 °F 48.2 °F 88% 30.30 in - West 4.6 mph - N/A   Clear
8:00 PM 51 °F 48 °F 85% 30.34 in 19 mi WSW 6.7 mph - -   Mostly Cloudy
8:00 PM 50.0 °F 48.2 °F 94% 30.30 in - West 6.9 mph - N/A   Clear
8:30 PM 50.0 °F 48.2 °F 94% 30.33 in - West 6.9 mph - N/A   Clear
9:00 PM 50.0 °F 48.2 °F 94% 30.33 in - West 5.8 mph - N/A   Clear
9:30 PM 48.2 °F 46.4 °F 93% 30.33 in - West 6.9 mph - N/A   Clear
10:00 PM 48.2 °F 46.4 °F 93% 30.33 in - West 6.9 mph - N/A   Clear
10:30 PM 48.2 °F 46.4 °F 93% 30.33 in - WNW 8.1 mph - N/A   Clear
11:00 PM 48.2 °F 46.4 °F 93% 30.33 in - West 6.9 mph - N/A   Clear
11:30 PM 48.2 °F 46.4 °F 93% 30.33 in - West 5.8 mph - N/A   Clear